User: anonymous   Login
Location: Enborne
(51.3833°N, 1.3667°W)
Time: 04:46:58
(UTC+00:00)
Language:

Cosmos 1844 Rocket - Orbit

View from above orbital plane
View from above orbital plane
View from above satellite
View from above satellite

Ground track
Ground track

The orbit data is extracted from the following two-line orbital elements,

1 17974U 87041B   20337.16790766 -.00000267  00000-0 -10844-3 0  9992
2 17974  71.0068 126.6961 0016375 264.4237 268.2457 14.17270228735567
Epoch (UTC): 02 December 2020 04:01:47
Eccentricity: 0.0016375
inclination: 71.0068°
perigee height: 823 km
apogee height: 846 km
right ascension of ascending node: 126.6961°
argument of perigee: 264.4237°
revolutions per day: 14.17270228
mean anomaly at epoch: 268.2457°
orbit number at epoch: 73556

The dashed part of the orbit path shows where the satellite is in the earth's shadow,  

DLR